Das Wetter in  D-61279 Heinzenberg / Taunus





Wetter Minimum- & Maximum-Werte im Juni 2012

Standort: Heinzenberg / Taunus - Höhe 297 m         8° 24' 1" Ost 50° 21' 51" Nord
(   3-stündige Aktualisierung    letzte Aktualisierung um 20:46 am 30.06.2012  )


Messgrösse

Minimum

Maximum

Durchschnitt

Temperatur West /
Luftfeuchte West
Anklicken für Monats-Diagramm

6,0 °C

06:29
05.06.2012

40 %

16:53
10.06.2012

28,7 °C

17:04
28.06.2012

99 %

06:31
07.06.2012

Temp

15,2 °C

Feuchte

82 %

Temperatur Ost /
Luftfeuchte Ost
Anklicken für Monats-Diagramm

6,0 °C

06:29
05.06.2012

--

--
--

28,6 °C

14:49
28.06.2012

--

--
--

15,3 °C

--

Luftdruck Anklicken für Monats-Diagramm

1001,3 hPa

16:04
11.06.2012

1024,2 hPa

06:25
23.06.2012

1014,0 hPa

Taupunkt

3,8 °C

16:54
05.06.2012

22,6 °C

16:50
29.06.2012

11,8 °C

Windchill
( gefühlte Temperatur )

-3,6 °C

00:39
05.06.2012

28,2 °C

17:14
28.06.2012

13,6 °C

Windgeschwindigkeit /
Windrichtung
Anklicken für Monats-Diagramm

---

51,6 km/h / W-SW

10:27
09.06.2012

7,8 km/h
W-SW

Helligkeit /
Sonnenschein
Anklicken für Monats-Diagramm
Anklicken für Monats-Diagramm

Sonnenschein:

124:33 Stunden

Max: 10:24 Std am
26.06.2012

122 klux

12:34
05.06.2012

27 klux

Solarstrahlung Anklicken für Monats-Diagramm

---

834 W/m²

12:34
05.06.2012

202 W/m²

Regenmenge
    Juni 2012
Anklicken für Monats-Diagramm

Insgesamt 131,8 l/m²

in 79:02 Stunden
an 22 Tagen

16,6 l/m²

10:17
20.06.2012

Gesamtmenge

131,8 l/m²

Regen-Tage
    Juni 2012
Anklicken für Monats-Diagramm

>   0 mm/Tag

>   2 mm/Tag

>   5 mm/Tag

> 10 mm/Tag

> 20 mm/Tag

22 Tage     
13 Tage     
11 Tage     
6 Tage     
0 Tage     

Eisige Tage Juni 2012 / 2011

Tmin ≤ -10°C     

0 Tage

/

0 Tage

Eistage Juni 2012 / 2011

Tmax <     0°C     

0 Tage

/

0 Tage

Frosttage Juni 2012 / 2011

Tmin ≤     0°C     

0 Tage

/

0 Tage

Kalte Tage Juni 2012 / 2011

Tmax <   10°C     

0 Tage

/

0 Tage

Warme Tage Juni 2012 / 2011

Tmax ≥   20°C     

16 Tage

/

21 Tage

Sommertage Juni 2012 / 2011

Tmax ≥   25°C     

4 Tage

/

8 Tage

Heisse Tage Juni 2012 / 2011

Tmax ≥   30°C     

0 Tage

/

3 Tage


Monatsdiagramm Juni 2012

Die Kurven zeigen den Durchschnittswert des jeweiligen Tages an


Wetter-Monatsübersicht Juni 2012
Datum
  Temperatur
   Luftdruck
   Wind
  Regen
   Luftfeuchte
   Helligkeit

Sonnen-
schein

Ø
Temp.

Min.
Temp.

Max.
Temp.

Ø
Luftdruck

Min.
Luftdruck

Max.
Luftdruck

Ø-Geschw.
Haupt-Richtg.

Max.
Wind

Menge /
Dauer

Ø
Feuchte

Min.
Feuchte

Max.
Feuchte

Ø
Helligkeit

Max.
Helligkeit

1.
Juni
13,8 °C11,0 °C
06:30
18,6 °C
17:10
1016,7 hPa1014,4 hPa
00:00
1018,5 hPa
11:15
14,1 km/h
W
34,6 km/h
01:50  
0,9 l/m²
1:30 Stunden
82 %59 %
17:15
97 %
02:00
22,7 klux108,0 klux
14:40
46 Min 
2.
Juni
13,5 °C8,8 °C
05:11
20,2 °C
17:56
1015,8 hPa1012,8 hPa
19:11
1018,1 hPa
06:31
6,2 km/h
W-NW
25,3 km/h
15:16  
---
73 %46 %
18:01
96 %
07:26
34 klux108 klux
13:41
6:31 Std 
3.
Juni
11,0 °C8,1 °C
03:07
14,4 °C
16:37
1008,8 hPa1004,1 hPa
15:37
1013,9 hPa
01:52
4,4 km/h
W-NW
24,9 km/h
16:52  
12,9 l/m²
10:45 Stunden
93 %79 %
00:02
98 %
16:22
8 klux25 klux
16:02
--- 
4.
Juni
12,3 °C7,5 °C
23:59
16,9 °C
13:53
1010,1 hPa1007,8 hPa
16:23
1014,1 hPa
23:59
12,1 km/h
W-SW
49,7 km/h
21:38  
6,2 l/m²
6:26 Stunden
92 %78 %
13:58
98 %
00:03
20,8 klux119,0 klux
12:58
1:10 Std 
5.
Juni
10,1 °C6,0 °C
06:29
16,8 °C
17:39
1017,8 hPa1014,1 hPa
00:04
1021,1 hPa
10:59
7,7 km/h
W
32,0 km/h
00:39  
0,2 l/m²
25 Minuten
75 %48 %
15:44
96 %
04:34
27 klux122 klux
12:34
2:50 Std 
6.
Juni
11,8 °C6,3 °C
01:05
17,4 °C
16:25
1009,6 hPa1006,7 hPa
16:25
1015,3 hPa
01:05
6,2 km/h
SW
28,7 km/h
13:20  
5,3 l/m²
4:15 Stunden
87 %77 %
05:10
96 %
23:21
19 klux118 klux
13:45
1:30 Std 
7.
Juni
16,2 °C10,1 °C
02:41
23,3 °C
16:16
1005,7 hPa1001,4 hPa
20:46
1009,6 hPa
02:41
5,7 km/h
SW
30,7 km/h
16:31  
2,6 l/m²
2:15 Stunden
85 %56 %
16:26
99 %
06:31
30 klux116 klux
13:46
3:50 Std 
8.
Juni
16,8 °C13,2 °C
05:46
22,1 °C
16:51
1007,7 hPa1003,7 hPa
00:01
1012,3 hPa
23:07
19,5 km/h
W-SW
47,8 km/h
17:56  
0,5 l/m²
46 Minuten
72 %41 %
17:16
95 %
06:11
39 klux108 klux
13:41
7:44 Std 
9.
Juni
14,2 °C10,1 °C
23:58
18,8 °C
16:27
1013,8 hPa1012,3 hPa
00:02
1015,3 hPa
11:32
17,2 km/h
W-SW
51,6 km/h
10:27  
0,6 l/m²
50 Minuten
65 %43 %
16:27
89 %
04:42
38 klux107 klux
12:12
7:45 Std 
10.
Juni
13,8 °C8,0 °C
06:13
20,2 °C
16:33
1011,6 hPa1007,1 hPa
23:14
1015,0 hPa
06:13
2,1 km/h
SW
21,4 km/h
15:53  
---
67 %40 %
16:53
89 %
07:08
31 klux103 klux
14:33
3:45 Std 
11.
Juni
13,2 °C9,3 °C
04:34
19,1 °C
16:04
1004,2 hPa1001,3 hPa
16:04
1007,5 hPa
01:44
4,3 km/h
SW
34,2 km/h
16:34  
6,8 l/m²
2:50 Stunden
84 %71 %
09:39
94 %
17:09
23 klux102 klux
15:39
2:35 Std 
12.
Juni
14,3 °C8,4 °C
06:25
20,5 °C
14:30
1003,7 hPa1002,2 hPa
14:30
1008,2 hPa
23:55
6,8 km/h
W
28,3 km/h
19:50  
---
78 %50 %
13:10
97 %
07:25
39 klux100 klux
14:30
7:10 Std 
13.
Juni
12,4 °C10,9 °C
23:46
13,5 °C
13:05
1012,7 hPa1008,2 hPa
00:15
1017,8 hPa
23:46
1,6 km/h
W-NW
16,0 km/h
00:10  
16,3 l/m²
13:15 Stunden
95 %85 %
00:00
98 %
23:51
10 klux25 klux
14:05
--- 
14.
Juni
13,4 °C10,4 °C
05:31
19,2 °C
17:26
1018,7 hPa1016,9 hPa
18:56
1019,9 hPa
07:56
0,7 km/h
W-NW
10,1 km/h
14:51  
0,5 l/m²
55 Minuten
86 %63 %
17:31
99 %
06:01
25,1 klux101,0 klux
14:26
2:05 Std 
15.
Juni
15,5 °C10,0 °C
03:02
21,1 °C
15:52
1016,1 hPa1014,5 hPa
15:52
1018,9 hPa
02:42
5,6 km/h
O-SO
29,7 km/h
15:52  
0,8 l/m²
1:25 Stunden
83 %69 %
15:27
96 %
05:17
22 klux103 klux
14:57
2:06 Std 
16.
Juni
15,0 °C12,0 °C
22:34
18,5 °C
09:18
1017,0 hPa1014,8 hPa
09:33
1019,7 hPa
22:49
9,4 km/h
W-SW
30,4 km/h
10:23  
13,5 l/m²
8:26 Stunden
93 %80 %
10:13
97 %
23:29
10 klux40 klux
09:08
--- 
17.
Juni
16,5 °C11,6 °C
05:44
23,7 °C
17:14
1021,0 hPa1019,4 hPa
18:54
1023,4 hPa
11:54
9,0 km/h
W-SW
28,5 km/h
10:34  
0,2 l/m²
5 Minuten
74 %40 %
18:24
97 %
00:09
42,3 klux103,0 klux
12:04
10:16 Std 
18.
Juni
18,5 °C9,6 °C
05:50
26,2 °C
17:20
1015,7 hPa1012,0 hPa
11:20
1020,2 hPa
23:56
12,7 km/h
W-SW
48,0 km/h
15:40  
---
72 %45 %
17:26
95 %
07:55
41 klux117 klux
13:15
10:15 Std 
19.
Juni
16,9 °C12,0 °C
05:56
21,6 °C
13:26
1018,7 hPa1015,8 hPa
18:41
1021,6 hPa
02:56
0,0 km/h
N
0,0 km/h
00:01  
15,0 l/m²
3:21 Stunden
85 %64 %
11:36
97 %
22:22
23 klux91 klux
10:41
2:25 Std 
20.
Juni
16,8 °C16,0 °C
07:57
18,4 °C
18:07
1013,5 hPa1011,7 hPa
18:07
1016,1 hPa
00:27
0,0 km/h
N
0,0 km/h
00:02  
16,6 l/m²
11:10 Stunden
98 %97 %
00:02
99 %
07:42
7,3 klux40,8 klux
15:57
--- 
21.
Juni
17,9 °C15,1 °C
05:38
23,0 °C
17:28
1011,3 hPa1009,1 hPa
17:28
1013,1 hPa
03:08
2,1 km/h
O-SO
49,8 km/h
22:24  
3,6 l/m²
46 Minuten
89 %69 %
16:58
99 %
04:38
23,2 klux120,0 klux
12:43
1:30 Std 
22.
Juni
15,7 °C12,5 °C
23:40
19,4 °C
16:09
1018,3 hPa1012,1 hPa
00:04
1022,8 hPa
23:40
13,8 km/h
SW
39,7 km/h
15:34  
0,2 l/m²
10 Minuten
78 %56 %
15:49
96 %
00:44
34 klux111 klux
14:54
6:05 Std 
23.
Juni
15,7 °C9,4 °C
06:05
21,6 °C
16:10
1022,8 hPa1021,7 hPa
16:20
1024,2 hPa
06:25
9,4 km/h
W-SW
33,1 km/h
13:05  
---
73 %48 %
16:15
94 %
06:45
37 klux107 klux
14:10
7:30 Std 
24.
Juni
13,8 °C8,8 °C
05:50
19,5 °C
12:25
1016,8 hPa1011,8 hPa
16:05
1023,0 hPa
02:00
17,5 km/h
W-SW
45,0 km/h
13:25  
6,7 l/m²
4:11 Stunden
82 %57 %
13:20
96 %
18:55
23 klux84 klux
11:30
2:50 Std 
25.
Juni
13,6 °C10,6 °C
05:21
18,9 °C
16:36
1016,6 hPa1014,6 hPa
00:56
1020,7 hPa
23:57
17,5 km/h
W-SW
41,5 km/h
16:16  
0,8 l/m²
2:01 Stunden
84 %58 %
16:36
95 %
02:01
25,2 klux98,0 klux
16:11
2:46 Std 
26.
Juni
15,2 °C8,8 °C
05:32
22,7 °C
18:27
1021,2 hPa1020,5 hPa
18:27
1022,7 hPa
23:58
8,8 km/h
W-NW
24,4 km/h
15:42  
---
72 %47 %
17:12
93 %
06:07
44,1 klux106,0 klux
12:47
10:24 Std 
27.
Juni
16,7 °C10,5 °C
04:53
22,9 °C
16:18
1019,1 hPa1015,9 hPa
23:24
1022,7 hPa
00:08
6,6 km/h
W-SW
31,2 km/h
13:33  
9,9 l/m²
40 Minuten
86 %69 %
13:03
96 %
23:39
26 klux115 klux
12:58
2:45 Std 
28.
Juni
20,9 °C14,6 °C
05:34
28,7 °C
17:04
1011,9 hPa1007,7 hPa
18:24
1016,1 hPa
02:59
6,4 km/h
O-SO
30,0 km/h
19:59  
---
80 %54 %
15:14
99 %
06:14
34 klux95 klux
14:49
4:40 Std 
29.
Juni
20,8 °C16,5 °C
04:20
26,8 °C
12:45
1009,7 hPa1007,8 hPa
04:10
1011,8 hPa
07:10
6,1 km/h
SW
25,9 km/h
12:05  
11,9 l/m²
2:35 Stunden
85 %63 %
12:30
98 %
09:05
30,2 klux80,8 klux
12:55
6:10 Std 
30.
Juni
20,7 °C15,4 °C
06:26
27,3 °C
17:36
1012,5 hPa1009,9 hPa
19:56
1014,7 hPa
09:51
0,0 km/h
N
0,4 km/h
01:51  
---
77 %51 %
12:56
96 %
06:06
35,9 klux88,0 klux
15:16
7:10 Std 



Juni
2012

Temperatur

  

Luftdruck

  

Wind

  

Regen

  

Luftfeuchte

  

Helligkeit

Sonnen-
schein

Ø

Min

Max

Ø

Min

Max

Ø

Max

Max

Ø

Min

Max

Ø

Max

Max

15,2 °C

6,0 °C

06:29 Uhr
05.06.2012

28,7 °C

17:04 Uhr
28.06.2012

1014,0 hPa

1001,3 hPa

16:04 Uhr
11.06.2012

1024,2 hPa

06:25 Uhr
23.06.2012

7,8 km/h

W-SW

51,6 km/h

10:27 Uhr
09.06.2012

16,6 l/m²

11:10 Stunden
20.06.2012

82 %

40 %

16:53 Uhr
10.06.2012

99 %

06:31 Uhr
07.06.2012

27,5 klux

122,0 klux

12:34 Uhr
05.06.2012

10:24 Std

am
26.06.2012

Gesamt

Gesamt

131,8 l/m²

22 Tage
79:02 h

124:33 Std


Wetter-Diagramme Juni 2012     Heinzenberg / Taunus   
TemperaturLuftfeuchte
SolarstrahlungLuftdruck
HelligkeitSonnenschein
RegenmengeRegendauer
Wind-GeschwindigkeitWind-Richtung